Date,Time,Air Temperature,Dewpoint,Windchill,Heat Index,RH,3m Max Wind Speed,3m Mean Wind Speed,3m Wind Direction,Rain,Solar Radiation
,,F,F,F,F,%,MPH,MPH,deg,in,MJ/m^2
2024-05-17,20:25,81.7,29.8,81.7,81.7,15.2,4.6,2.7,191.3,0.0,0.00006021891
2024-05-17,20:30,81.7,29.1,81.7,81.7,14.8,5.5,3.7,197.5,0.0,0.00006022367
2024-05-17,20:35,81.1,29.2,81.1,81.1,15.1,4.9,3.3,193.6,0.0,0.0000602277
2024-05-17,20:40,80.8,29.4,80.8,80.8,15.4,3.5,2.4,181.3,0.0,0.00005621637
2024-05-17,20:45,80.5,29.8,80.5,80.5,15.7,3.8,2,169.7,0.0,0.000052205
2024-05-17,20:50,80.2,29,80.2,80.2,15.4,4.9,2.4,173.9,0.0,0.00005220871
2024-05-17,20:55,79.8,29.3,79.8,79.8,15.8,4,2.3,182,0.0,0.00000200815
2024-05-17,21:00,79.4,29.7,79.4,79.4,16.2,2.4,1.8,172.3,0.0,0.000002008225
2024-05-17,21:05,79,30.2,79.0,79,16.8,4.6,1.6,164.4,0.0,0
2024-05-17,21:10,78.7,29.7,78.7,78.7,16.6,2.4,1.5,165.4,0.0,0
2024-05-17,21:15,78.5,29.3,78.5,78.5,16.5,3.3,2,173.9,0.0,0
2024-05-17,21:20,78.2,29.5,78.2,78.2,16.8,3,1.9,154.9,0.0,0
2024-05-17,21:25,77.8,29.2,77.8,77.8,16.8,3.3,2.3,142.4,0.0,0
2024-05-17,21:30,77.6,29.7,77.6,77.6,17.2,3.1,2.2,154.2,0.0,0
2024-05-17,21:35,77.2,29.8,77.2,77.2,17.5,3.5,2,136.5,0.0,0
2024-05-17,21:40,76.9,28.9,76.9,76.9,17.1,3.3,2,141.9,0.0,0
2024-05-17,21:45,76.6,28.9,76.6,76.6,17.3,2.2,1.8,131,0.0,0
2024-05-17,21:50,76.2,28.8,76.2,76.2,17.4,2.2,1.7,135.6,0.0,0
2024-05-17,21:55,76.1,29.6,76.1,76.1,18.1,2.6,1.6,151.3,0.0,0
2024-05-17,22:00,75.5,30,75.5,75.5,18.7,2.2,1.3,135.5,0.0,0
2024-05-17,22:05,74.9,29.7,74.9,74.9,18.9,1.3,0.8,115.2,0.0,0
2024-05-17,22:10,74.6,29.5,74.6,74.6,18.9,1.3,0.9,116.7,0.0,0
2024-05-17,22:15,74.3,28,74.3,74.3,18.0,2.1,1.4,126.4,0.0,0
2024-05-17,22:20,74.3,27.9,74.3,74.3,17.9,1.7,1.4,127.5,0.0,0
2024-05-17,22:25,74.3,27.4,74.3,74.3,17.5,1.9,1.4,120.4,0.0,0
2024-05-17,22:30,74.3,27.9,74.3,74.3,17.9,2.2,1.6,137.4,0.0,0
2024-05-17,22:35,74.2,27.3,74.2,74.2,17.5,2.2,1.4,175.8,0.0,0
2024-05-17,22:40,74.3,26.4,74.3,74.3,16.8,3.3,1.4,177.2,0.0,0
2024-05-17,22:45,74,27,74.0,74,17.4,1.5,0.4,93.5,0.0,0
2024-05-17,22:50,73.6,26.3,73.6,73.6,17.2,1.9,1.1,59.4,0.0,0.00000201032
2024-05-17,22:55,73.6,26.1,73.6,73.6,17.0,1.9,0.9,83.2,0.0,0
2024-05-17,23:00,73.8,26.8,73.8,73.8,17.4,2.2,1.6,88.5,0.0,0
2024-05-17,23:05,73.6,25,73.6,73.6,16.3,3.3,1.9,127,0.0,0
2024-05-17,23:10,73.5,25.6,73.5,73.5,16.7,2.2,1.1,136,0.0,0.000002010637
2024-05-17,23:15,73.1,27.4,73.1,73.1,18.3,3,1.7,99.9,0.0,0
2024-05-17,23:20,73,28.6,73.0,73,19.3,3,2,112.7,0.0,0
2024-05-17,23:25,72.8,28.4,72.8,72.8,19.2,2.6,1.9,119,0.0,0.000004021841
2024-05-17,23:30,72.6,28,72.6,72.6,19.0,2.8,2.1,111.9,0.0,0.000008043857
2024-05-17,23:35,72.6,29.4,72.6,72.6,20.1,2.6,1.9,111.5,0.0,0.00001206587
2024-05-17,23:40,72.5,27.4,72.5,72.5,18.6,3,2.1,108.8,0.0,0.00001206597
2024-05-17,23:45,72.8,26.7,72.8,72.8,17.9,3.8,2.6,118.2,0.0,0.00001206611
2024-05-17,23:50,72.8,31,72.8,72.8,21.3,3.5,2.5,119.6,0.0,0.000004021917
2024-05-17,23:55,72.5,28.4,72.5,72.5,19.4,2.4,1.8,119.2,0.0,0.000004021966
2024-05-18,00:00,72,26.3,72.0,72,18.1,2.1,1.7,128.4,0.0,0.000004022005
2024-05-18,00:05,72,26.9,72.0,72,18.5,2.8,2.3,114.7,0.0,0.00001005505
2024-05-18,00:10,72.1,26.9,72.1,72.1,18.5,2.4,1.6,74.8,0.0,0.000002011028
2024-05-18,00:15,72.1,28.3,72.1,72.1,19.6,2.2,1.6,71.6,0.0,0.000002011055
2024-05-18,00:20,72,28.5,72.0,72,19.8,2.8,2.3,98.7,0.0,0.00001206653
2024-05-18,00:25,71.9,25.6,71.9,71.9,17.7,3.5,2.4,131.9,0.0,0.00001005529
2024-05-18,00:30,72,27.8,72.0,72,19.3,3.3,2,146,0.0,0.000008044351
2024-05-18,00:35,71.9,27.3,71.9,71.9,19.0,4.7,2.5,211.8,0.0,0.000008044572
2024-05-18,00:40,73.1,26.9,73.1,73.1,17.9,5.3,3.8,152.6,0.0,0.000004022244
2024-05-18,00:45,72.5,27.3,72.5,72.5,18.6,4,2.6,184.3,0.0,0.0000120669
2024-05-18,00:50,72.5,28.1,72.5,72.5,19.2,4.6,2.9,160.4,0.0,0.000002011187
2024-05-18,00:55,72,28.6,72.0,72,19.9,3.3,2.1,176.5,0.0,0.000008044576
2024-05-18,01:00,71.5,27.9,71.5,71.5,19.7,2.8,1.9,136.4,0.0,0
2024-05-18,01:05,71.2,29.3,71.2,71.2,21.1,1.9,1.1,136.8,0.0,0.000008044583
2024-05-18,01:10,71.3,27.8,71.3,71.3,19.7,3,2.1,120.8,0.0,0.00001407786
2024-05-18,01:15,71.2,25.8,71.2,71.2,18.2,3,2.4,125.3,0.0,0.00001206684
2024-05-18,01:20,71.3,28.9,71.3,71.3,20.6,2.6,1.7,83.7,0.0,0.000006033435
2024-05-18,01:25,71.6,27.4,71.6,71.6,19.2,4,2.9,88.8,0.0,0.00003217834
2024-05-18,01:30,71.6,29.1,71.6,71.6,20.6,4.9,3.7,100.5,0.0,0.00002011154
2024-05-18,01:35,71.4,26.1,71.4,71.4,18.3,3.7,2.5,129.5,0.0,0.000008044628
2024-05-18,01:40,71.4,30.6,71.4,71.4,22.0,3,2,98.8,0.0,0.00001206701
2024-05-18,01:45,71,28.7,71.0,71,20.7,2.1,1.6,133.7,0.0,0.000006033508
2024-05-18,01:50,70.3,28.7,70.3,70.3,21.2,3.7,2.3,160.4,0.0,0.000008044669
2024-05-18,01:55,69.9,27.6,69.9,69.9,20.5,3.7,1.8,132.9,0.0,0.00002212279
2024-05-18,02:00,69.4,28.4,69.4,69.4,21.6,1.9,1.3,135,0.0,0.00003016712
2024-05-18,02:05,69,27.8,69.0,69,21.3,1.9,1.5,143.9,0.0,0.00003016742
2024-05-18,02:10,68.6,28.6,68.6,68.6,22.4,3,2.4,190.2,0.0,0.00004223433
2024-05-18,02:15,68.3,27.9,68.3,68.3,21.9,1.9,1.5,160.8,0.0,0.00005027969
2024-05-18,02:20,68.1,26.7,68.1,68.1,21.1,2.1,1.3,169.9,0.0,0.00005229107
2024-05-18,02:25,68.4,27.3,68.4,68.4,21.3,3.1,2,124.7,0.0,0.00004826952
2024-05-18,02:30,68.1,28.6,68.1,68.1,22.8,1.7,1.3,56.2,0.0,0.00003620346
2024-05-18,02:35,68,30.5,68.0,68,24.6,2.4,1.7,140.9,0.0,0.00004223925
2024-05-18,02:40,67.6,30.3,67.6,67.6,24.9,2.4,1.5,188.9,0.0,0.00005229913
2024-05-18,02:45,67.1,30.6,67.1,67.1,25.6,2.6,2.1,182.7,0.0,0.00003620882
2024-05-18,02:50,66.6,28.8,66.6,66.6,24.1,2.2,1.4,79.5,0.0,0.00002816437
2024-05-18,02:55,67,29.3,67.0,67,24.3,4.6,2.1,247.8,0.0,0.00004627223
2024-05-18,03:00,67.5,28.1,67.5,67.5,22.8,3.3,2.5,175,0.0,0.00001810684
2024-05-18,03:05,67.1,27,67.1,67.1,22.0,4.2,2.6,263.3,0.0,0.00001810735
2024-05-18,03:10,67.4,28.8,67.4,67.4,23.4,3,2.2,123,0.0,0.0000181083
2024-05-18,03:15,67.1,29.5,67.1,67.1,24.4,2.2,1.6,156.9,0.0,0.000006036236
2024-05-18,03:20,67,28.1,67.0,67,23.1,3,1.7,114.7,0.0,0
2024-05-18,03:25,66.6,32.1,66.6,66.6,27.6,3.8,2.4,185.9,0.0,0.00001006051
2024-05-18,03:30,65.6,30,65.6,65.6,26.3,2.4,1.7,141.2,0.0,0.0000201207
2024-05-18,03:35,64.9,29.5,64.9,64.9,26.3,2.8,1.8,138.1,0.0,0.00002012093
2024-05-18,03:40,65,29.4,65.0,65,26.1,4.4,2.4,161.8,0.0,0.00002213286
2024-05-18,03:45,65.3,30,65.3,65.3,26.5,3.5,2.2,132.8,0.0,0.000008048324
2024-05-18,03:50,65.1,31.6,65.1,65.1,28.5,1.7,0.4,102.4,0.0,0.000008048452
2024-05-18,03:55,65,31.5,65.0,65,28.5,2.2,1.7,120.7,0.0,0.00002012146
2024-05-18,04:00,64.7,33.4,64.7,64.7,31.1,1.9,1.4,173,0.0,0.000006036412
2024-05-18,04:05,64.1,31,64.1,64.1,28.8,2.2,1,181.7,0.0,0.00001006093
2024-05-18,04:10,64,31.3,64.0,64,29.3,2.4,1.9,193.1,0.0,0.000004024529
2024-05-18,04:15,64,30.2,64.0,64,28.0,2.2,1.8,197.4,0.0,0
2024-05-18,04:20,63.6,30.7,63.6,63.6,28.9,2.1,0.5,188.7,0.0,0
2024-05-18,04:25,63.3,29.1,63.3,63.3,27.4,2.4,1.8,112,0.0,0
2024-05-18,04:30,63.1,29.6,63.1,63.1,28.2,3.1,2.1,180.8,0.0,0
2024-05-18,04:35,62.7,31.7,62.7,62.7,31.1,1.9,1.4,172.1,0.0,0.000002012656
2024-05-18,04:40,62.2,29.1,62.2,62.2,28.5,2.4,1.7,167,0.0,0
2024-05-18,04:45,62.4,28.4,62.4,62.4,27.5,2.1,1.1,150.8,0.0,0
2024-05-18,04:50,62.9,27.4,62.9,62.9,25.9,2.8,2,134.9,0.0,0
2024-05-18,04:55,63.2,28.3,63.2,63.2,26.5,1.7,1.2,128.9,0.0,0
2024-05-18,05:00,63,27.5,63.0,63,26.0,2.1,0.8,114.8,0.0,0
2024-05-18,05:05,63.2,27,63.2,63.2,25.3,2.6,1.7,134.8,0.0,0
2024-05-18,05:10,63.2,27.5,63.2,63.2,25.7,2.8,1.8,119.1,0.0,0
2024-05-18,05:15,63.5,27.6,63.5,63.5,25.6,2.2,1.7,108.8,0.0,0
2024-05-18,05:20,63.6,27.1,63.6,63.6,25,2.1,1.7,151.4,0.0,0
2024-05-18,05:25,63.4,28.4,63.4,63.4,26.5,2.4,2.1,173.1,0.0,0
2024-05-18,05:30,63.1,27.7,63.1,63.1,26.1,2.1,1.6,156.7,0.0,0
2024-05-18,05:35,63,27.2,63.0,63,25.7,3,2.1,83.7,0.0,0
2024-05-18,05:40,63.1,27.6,63.1,63.1,26.0,2.4,1,194.6,0.0,0
2024-05-18,05:45,62.7,28,62.7,62.7,26.8,1.9,1.4,163.6,0.0,0.000006038862
2024-05-18,05:50,62.5,27.8,62.5,62.5,26.7,2.2,1.5,170.8,0.0,0.00009058236
2024-05-18,05:55,62.6,28.4,62.6,62.6,27.3,3.3,2.2,178,0.0,0.0002033043
2024-05-18,06:00,62.2,28.9,62.2,62.2,28.3,2.2,1.6,162.8,0.0,0.0004367996
2024-05-18,06:05,61.7,28.7,61.7,61.7,28.5,3.7,1.7,168.6,0.0,0.0007991263
2024-05-18,06:10,61.2,27.9,61.2,61.2,28.1,2.2,1.7,140.6,0.0,0.001274193
2024-05-18,06:15,61.1,28.1,61.1,61.1,28.5,1.3,0.6,237.5,0.0,0.001920378
2024-05-18,06:20,61,29.1,61.0,61,29.7,1.7,1,204.7,0.0,0.002594723
2024-05-18,06:25,61,27.6,61.0,61,27.9,2.6,2,212.5,0.0,0.003271037
2024-05-18,06:30,60.8,29.6,60.8,60.8,30.4,2.4,1.5,193.3,0.0,0.00396956
2024-05-18,06:35,59.9,30.5,59.9,59.9,32.8,3,2.2,181.3,0.0,0.004752655
2024-05-18,06:40,59.3,31.4,59.3,59.3,34.6,2.2,1.2,150.2,0.0,0.005509546
2024-05-18,06:45,59.3,31.1,59.3,59.3,34.2,2.2,1,167.5,0.0,0.006099368
2024-05-18,06:50,59.3,30.8,59.3,59.3,33.8,1.3,0.4,157.5,0.0,0.006630739
2024-05-18,06:55,59.4,30.7,59.4,59.4,33.5,1.2,0.4,162.1,0.0,0.007053636
2024-05-18,07:00,59.7,30.7,59.7,59.7,33.2,1.3,0.4,211.2,0.0,0.007798691
2024-05-18,07:05,60,30.7,60.0,60,32.8,1.7,0.4,117.5,0.0,0.01181734
2024-05-18,07:10,61.2,28.7,61.2,61.2,29.0,2.2,1.6,153,0.0,0.01277595
2024-05-18,07:15,62,29.7,62.0,62,29.4,1.3,0.9,143.1,0.0,0.01023981
2024-05-18,07:20,62.5,29.5,62.5,62.5,28.6,1.7,1.1,194,0.0,0.01282552
2024-05-18,07:25,63,29.2,63.0,63,27.7,2.2,1.6,190.1,0.0,0.02342428
2024-05-18,07:30,63.5,29.5,63.5,63.5,27.7,2.4,1,230.2,0.0,0.05992292
2024-05-18,07:35,64.1,31.4,64.1,64.1,29.2,2.2,1.4,236.4,0.0,0.04191013
2024-05-18,07:40,64.3,28.5,64.3,64.3,25.9,2.1,1.7,323.1,0.0,0.05375412
2024-05-18,07:45,64.9,31.8,64.9,64.9,29.0,2.4,1.2,297.2,0.0,0.07719073
2024-05-18,07:50,65.5,29.5,65.5,65.5,25.8,3.1,2.3,322.6,0.0,0.08277701
2024-05-18,07:55,66.1,35,66.1,66.1,31.5,4,3.1,331,0.0,0.08809283
2024-05-18,08:00,67,37.3,67.0,67,33.4,4.6,3.5,332.7,0.0,0.09342034
2024-05-18,08:05,67.3,35.3,67.3,67.3,30.6,5.6,4.4,326.7,0.0,0.07341405
2024-05-18,08:10,68.6,33.2,68.6,68.6,26.9,5.3,3.6,348.1,0.0,0.1040834
2024-05-18,08:15,69.2,29.4,69.2,69.2,22.7,6.2,4.7,340.3,0.0,0.1093228
2024-05-18,08:20,69.8,36.9,69.8,69.8,29.9,4,3.4,319.9,0.0,0.1146141
2024-05-18,08:25,70.1,36,70.1,70.1,28.6,4.4,3.2,311.3,0.0,0.1198609
2024-05-18,08:30,70.4,31.7,70.4,70.4,23.9,4.6,3.5,283.3,0.0,0.1249151
2024-05-18,08:35,70.7,31.1,70.7,70.7,23.0,4.7,3.3,288.5,0.0,0.1299893
2024-05-18,08:40,71.6,31,71.6,71.6,22.3,4.2,2.9,244.3,0.0,0.1351262
2024-05-18,08:45,72,32.1,72.0,72,23.0,5.1,3.3,286,0.0,0.1400486
2024-05-18,08:50,72,31.3,72.0,72,22.2,5.1,3.8,281.1,0.0,0.1450537
2024-05-18,08:55,72.6,31.3,72.6,72.6,21.8,4.9,4.1,259.7,0.0,0.1499703
2024-05-18,09:00,73.5,31,73.5,73.5,20.9,6,3.7,233.3,0.0,0.1548721
2024-05-18,09:05,74.1,38,74.1,74.1,27.0,5.3,3.6,248.2,0.0,0.1596554
2024-05-18,09:10,74.8,32.3,74.8,74.8,21.1,4.7,2.8,260,0.0,0.1646351
2024-05-18,09:15,75,36.3,75.0,75,24.6,5.1,3.3,292.9,0.0,0.1695694
2024-05-18,09:20,75.7,33,75.7,75.7,21.0,4.4,2.4,320.5,0.0,0.174312
2024-05-18,09:25,76.6,40.7,76.6,76.6,27.7,4.4,2.9,321.5,0.0,0.1792578
2024-05-18,09:30,76.8,31.6,76.8,76.8,19.1,4.4,3,307.4,0.0,0.183881
2024-05-18,09:35,77.5,39.2,77.5,77.5,25.3,4.7,3.2,313.8,0.0,0.1886284
2024-05-18,09:40,78.2,35.7,78.2,78.2,21.5,4.6,3.5,327.1,0.0,0.1930373
2024-05-18,09:45,78.9,35.2,78.9,78.9,20.6,5.1,3.3,339.2,0.0,0.1975338
2024-05-18,09:50,79.2,38.3,79.2,79.2,23.1,5.8,3.8,326.6,0.0,0.201943
2024-05-18,09:55,79.9,34.1,79.9,79.9,19.2,5.8,3,315.1,0.0,0.2061474
2024-05-18,10:00,81.7,31.6,81.7,81.7,16.3,3.7,2.3,335.1,0.0,0.2112261
2024-05-18,10:05,82.2,31.2,82.2,82.2,15.7,3.5,2.3,303.6,0.0,0.2173866
2024-05-18,10:10,82.5,30.8,82.5,82.5,15.4,4,2.7,288.9,0.0,0.2190644
2024-05-18,10:15,82,36.1,82.0,82,19.3,6.7,3.6,302.2,0.0,0.2228474
2024-05-18,10:20,82.8,29.3,82.8,82.8,14.3,5.5,3.6,332.2,0.0,0.226719
2024-05-18,10:25,82.5,35,82.5,82.5,18.2,5.6,4.4,318.4,0.0,0.2303644
2024-05-18,10:30,82.6,37.3,82.6,82.6,19.8,6.5,3.8,275.1,0.0,0.2336734
2024-05-18,10:35,83.6,35.8,83.6,83.6,18.1,6.5,3.3,300.8,0.0,0.2371167
2024-05-18,10:40,83.3,34.3,83.3,83.3,17.2,8.3,5.2,306.1,0.0,0.2407187
2024-05-18,10:45,84.1,28,84.1,84.1,13.0,4,2.7,263.5,0.0,0.2441346
2024-05-18,10:50,85.8,37.3,85.8,85.8,17.9,3.3,2.2,347.6,0.0,0.2477274
2024-05-18,10:55,84.3,27.5,84.3,84.3,12.7,8,4.4,284.3,0.0,0.2508921
2024-05-18,11:00,85,23.4,85.0,85,10.4,7.2,3.5,288.2,0.0,0.2538994
2024-05-18,11:05,85.6,25.8,85.6,85.6,11.3,6.3,3.4,329,0.0,0.2569398
2024-05-18,11:10,85.5,29,85.5,85.5,13.0,6.5,3.6,289.9,0.0,0.2597826
2024-05-18,11:15,86.7,27.3,86.7,86.7,11.7,5.6,3.4,175,0.0,0.2625091
2024-05-18,11:20,87.4,27.9,87.4,87.4,11.7,5.1,3.7,258.5,0.0,0.2648532
2024-05-18,11:25,86.6,26.6,86.6,86.6,11.4,6.9,4.3,241.2,0.0,0.2669331
2024-05-18,11:30,87,30.3,87.0,87,13.0,5.6,3.8,241.1,0.0,0.2694616
2024-05-18,11:35,87.6,26.6,87.6,87.6,11.0,4,2,50.1,0.0,0.2720388
2024-05-18,11:40,88.2,29.8,88.2,88.2,12.3,6.9,3.2,186.5,0.0,0.2743681
2024-05-18,11:45,86.5,31.6,86.5,86.5,14.0,7.8,5.4,300.4,0.0,0.2762049
2024-05-18,11:50,86.8,30.9,86.8,86.8,13.5,6.3,4.1,299.2,0.0,0.2772872
2024-05-18,11:55,86.3,25.8,86.3,86.3,11.1,10.1,6.7,248,0.0,0.2789029
2024-05-18,12:00,87.1,25.6,87.1,87.1,10.7,5.5,3.2,206.7,0.0,0.2803455
2024-05-18,12:05,87,27.2,87.0,87,11.5,8.5,5.2,247.5,0.0,0.2816924
2024-05-18,12:10,87.6,29.2,87.6,87.6,12.2,7.2,3.5,147.1,0.0,0.2830732
2024-05-18,12:15,89.2,29.5,89.2,89.2,11.8,4,2.4,34.0,0.0,0.2849015
2024-05-18,12:20,89.6,30.8,89.6,89.6,12.2,4.7,3.1,183,0.0,0.2868853
2024-05-18,12:25,88.9,27.9,88.9,88.9,11.1,6.7,3.7,64.7,0.0,0.2871412
2024-05-18,12:30,89.9,33.8,89.9,89.9,13.7,7.4,3.1,138,0.0,0.2878576
2024-05-18,12:35,89.9,22.8,89.9,89.9,8.7,9.4,6.4,240.4,0.0,0.2887902
2024-05-18,12:40,89,22.2,89.0,89,8.7,11.3,5.9,209.7,0.0,0.2893368
2024-05-18,12:45,90,34.3,90.0,90,14.0,5.5,2.9,166.4,0.0,0.2902134
2024-05-18,12:50,89.7,25.9,89.7,89.7,10.0,13.5,6.8,242.5,0.0,0.2902757
2024-05-18,12:55,89.7,26.7,89.7,89.7,10.3,9.4,4.5,236.4,0.0,0.2911434
2024-05-18,13:00,91.1,27.6,91.1,91.1,10.2,9.4,5.1,188.6,0.0,0.2910209
2024-05-18,13:05,89,27.5,89.0,89,10.9,9,4.8,264,0.0,0.2903742
2024-05-18,13:10,89.9,30.1,89.9,89.9,11.8,7.6,4.1,240.8,0.0,0.2905003
2024-05-18,13:15,89.6,25.2,89.6,89.6,9.8,9.4,4.9,200.1,0.0,0.2904102
2024-05-18,13:20,90.2,24.7,90.2,90.2,9.4,9.9,6.9,212.5,0.0,0.2902457
2024-05-18,13:25,90.5,25.1,90.5,90.5,9.4,8.8,5.5,214.6,0.0,0.2897615
2024-05-18,13:30,90.6,21.4,90.6,90.6,8.1,9.2,4.7,226.4,0.0,0.2894329
2024-05-18,13:35,89.3,22.7,89.3,89.3,8.8,8.8,5.4,216.5,0.0,0.2890172
2024-05-18,13:40,90.8,26.7,90.8,90.8,10.0,6.7,3.6,226.8,0.0,0.2884593
2024-05-18,13:45,90.3,22.8,90.3,90.3,8.6,11,4.9,281,0.0,0.2877692
2024-05-18,13:50,90.7,22,90.7,90.7,8.2,13.1,8.8,250.6,0.0,0.2866366
2024-05-18,13:55,88.1,23.4,88.1,88.1,9.5,11.5,8,242.5,0.0,0.2851549
2024-05-18,14:00,90.9,22.5,90.9,90.9,8.4,6.2,3.3,190.1,0.0,0.284002
2024-05-18,14:05,91.4,28.3,91.4,91.4,10.5,5.5,3.3,263.5,0.0,0.2832953
2024-05-18,14:10,90.9,26.3,90.9,90.9,9.8,7.2,4.9,231.7,0.0,0.2816793
2024-05-18,14:15,91.4,26.9,91.4,91.4,9.9,7.1,4.5,187.2,0.0,0.2797629
2024-05-18,14:20,91.7,23.9,91.7,91.7,8.6,6.7,4.8,174.4,0.0,0.2782915
2024-05-18,14:25,91.6,24.6,91.6,91.6,8.9,13.7,7.3,212.3,0.0,0.2765916
2024-05-18,14:30,91.8,25.4,91.8,91.8,9.2,11.7,6.2,208.4,0.0,0.2759247
2024-05-18,14:35,91.3,23.5,91.3,91.3,8.6,11.7,6.8,215.9,0.0,0.274189
2024-05-18,14:40,90.5,20.2,90.5,90.5,7.7,9.9,6.6,226.6,0.0,0.2721017
2024-05-18,14:45,89.7,23.8,89.7,89.7,9.2,9.7,6.9,266.4,0.0,0.2692264
2024-05-18,14:50,91.1,21.1,91.1,91.1,7.8,7.8,4.8,197.9,0.0,0.2663929
2024-05-18,14:55,91.5,27.7,91.5,91.5,10.2,14,5.4,229.2,0.0,0.2643541
2024-05-18,15:00,91.6,16.5,91.6,91.6,6.3,10.1,7.7,229.9,0.0,0.2615995
2024-05-18,15:05,91.5,23.4,91.5,91.5,8.5,9.4,5.1,227.7,0.0,0.2589141
2024-05-18,15:10,92.1,29.5,92.1,92.1,10.7,4.6,3.3,76.3,0.0,0.2561528
2024-05-18,15:15,91.2,20.8,91.2,91.2,7.7,8.8,6.1,231.2,0.0,0.2532494
2024-05-18,15:20,91.4,23.1,91.4,91.4,8.4,8.5,5.3,226.5,0.0,0.2496695
2024-05-18,15:25,92.4,27,92.4,92.4,9.6,8.7,4.9,190.9,0.0,0.2462738
2024-05-18,15:30,92.6,29.8,92.6,92.6,10.7,7.8,5.3,229.9,0.0,0.2433218
2024-05-18,15:35,91.3,26,91.3,91.3,9.6,11,5,267.5,0.0,0.2386217
2024-05-18,15:40,91.6,26.6,91.6,91.6,9.7,7.2,4,264.6,0.0,0.2365396
2024-05-18,15:45,91.9,17.2,91.9,91.9,6.5,14.4,7.5,216,0.0,0.2333636
2024-05-18,15:50,92.2,22.5,92.2,92.2,8.0,13.9,7.5,220,0.0,0.2294804
2024-05-18,15:55,91.9,25.7,91.9,91.9,9.2,10.5,6.1,207.1,0.0,0.2260847
2024-05-18,16:00,92.3,27.2,92.3,92.3,9.8,11.3,7.3,202.3,0.0,0.2221595
2024-05-18,16:05,92.7,20,92.7,92.7,7.1,6.5,4.6,179.8,0.0,0.2182655
2024-05-18,16:10,92.7,22.9,92.7,92.7,8.0,8,5.8,195.9,0.0,0.2145928
2024-05-18,16:15,93.1,21.3,93.1,93.1,7.4,9.4,6.3,180.9,0.0,0.2104179
2024-05-18,16:20,92.5,20.8,92.5,92.5,7.4,11.2,5.8,212,0.0,0.206163
2024-05-18,16:25,93,17.8,93.0,93,6.4,8.8,6,205,0.0,0.2020151
2024-05-18,16:30,92.5,24.6,92.5,92.5,8.7,7.6,4.8,182.6,0.0,0.1978551
2024-05-18,16:35,92.7,22.1,92.7,92.7,7.8,11.2,7.5,224.9,0.0,0.1936356
2024-05-18,16:40,92,22.3,92.0,92,8.0,9.7,6.9,217.4,0.0,0.1889381
2024-05-18,16:45,93,23.3,93.0,93,8.1,6,3.8,182.4,0.0,0.1846261
2024-05-18,16:50,92.9,22.4,92.9,92.9,7.8,10.3,5.9,231.2,0.0,0.1798545
2024-05-18,16:55,92.4,18.6,92.4,92.4,6.7,8.7,6,210.6,0.0,0.1750708
2024-05-18,17:00,92.6,28.7,92.6,92.6,10.3,8.3,5.3,218.5,0.0,0.1705347
2024-05-18,17:05,92.4,21.7,92.4,92.4,7.7,12.4,8.7,230.7,0.0,0.1661965
2024-05-18,17:10,92.4,23.9,92.4,92.4,8.5,12.2,7.8,226.8,0.0,0.1610274
2024-05-18,17:15,92,18.3,92.0,92,6.7,12.8,9.5,234,0.0,0.1559446
2024-05-18,17:20,92.5,20,92.5,92.5,7.1,10.3,6,208.1,0.0,0.1511429
2024-05-18,17:25,92.1,26.4,92.1,92.1,9.5,7.8,5,200.1,0.0,0.1459496
2024-05-18,17:30,92.8,24.8,92.8,92.8,8.7,9.6,5.5,235.8,0.0,0.1394248
2024-05-18,17:35,92.5,22.2,92.5,92.5,7.9,9,6.1,198.1,0.0,0.1348276
2024-05-18,17:40,92.7,21.5,92.7,92.7,7.6,7.2,4.2,216,0.0,0.1299759
2024-05-18,17:45,92.5,21.6,92.5,92.5,7.7,11.5,6.6,214.9,0.0,0.1249196
2024-05-18,17:50,91.7,21.1,91.7,91.7,7.7,12.8,8.4,241.7,0.0,0.1196595
2024-05-18,17:55,92.3,19.9,92.3,92.3,7.2,10.8,7.1,221,0.0,0.1153257
2024-05-18,18:00,92.1,21.4,92.1,92.1,7.7,8,5.1,201.7,0.0,0.1102878
2024-05-18,18:05,92.2,22,92.2,92.2,7.9,8.5,5.5,220.2,0.0,0.1051535
2024-05-18,18:10,91.7,20.6,91.7,91.7,7.5,12.4,8.6,233.2,0.0,0.09951565
2024-05-18,18:15,91.9,20.5,91.9,91.9,7.5,8.3,5.1,220.9,0.0,0.09389082
2024-05-18,18:20,91.7,23.1,91.7,91.7,8.3,8.7,5.9,213.6,0.0,0.08866549
2024-05-18,18:25,91.7,22.2,91.7,91.7,8.1,8.7,6.1,231.7,0.0,0.0834898
2024-05-18,18:30,91.7,22.5,91.7,91.7,8.2,9.4,5.2,237.9,0.0,0.07838307
2024-05-18,18:35,91.1,22.4,91.1,91.1,8.3,8.1,6.1,255.7,0.0,0.07339723
2024-05-18,18:40,91.1,22.3,91.1,91.1,8.2,7.8,5.4,247.8,0.0,0.06828048
2024-05-18,18:45,91.1,22.4,91.1,91.1,8.3,8.1,5.5,244.4,0.0,0.06324455
2024-05-18,18:50,91,21.3,91.0,91,7.9,11.2,6.9,233.1,0.0,0.05840373
2024-05-18,18:55,90.8,21.8,90.8,90.8,8.1,8.8,5.2,221.1,0.0,0.05355481
2024-05-18,19:00,91,22.2,91.0,91,8.2,5.3,3.1,205.9,0.0,0.04864272
2024-05-18,19:05,90.8,24.8,90.8,90.8,9.3,4.9,3,212.1,0.0,0.04384132
2024-05-18,19:10,91.1,24.1,91.1,91.1,8.9,3.3,2.4,221.6,0.0,0.03921973
2024-05-18,19:15,90.5,24,90.5,90.5,9.0,3.7,2.9,214.8,0.0,0.03473317
2024-05-18,19:20,90.2,23.8,90.2,90.2,9.0,5.5,3.8,223.6,0.0,0.02975473
2024-05-18,19:25,89.9,21.1,89.9,89.9,8.1,7.1,4.9,240.5,0.0,0.02422242
2024-05-18,19:30,89.3,22.8,89.3,89.3,8.9,6.2,4.3,260.2,0.0,0.01896858
2024-05-18,19:35,89,19.6,89.0,89,7.9,9.4,4.9,257,0.0,0.01437254
2024-05-18,19:40,89.2,26.7,89.2,89.2,10.5,8.1,3.8,214.1,0.0,0.01046828
2024-05-18,19:45,88.2,26.1,88.2,88.2,10.5,3,2.2,200.4,0.0,0.007203862
2024-05-18,19:50,87.7,24,87.7,87.7,9.8,4.4,2.7,219.7,0.0,0.004849752
2024-05-18,19:55,87.1,25,87.1,87.1,10.5,2.8,2,189.8,0.0,0.002926497
2024-05-18,20:00,86.6,23.9,86.6,86.6,10.2,3,1.9,224.3,0.0,0.001937719
2024-05-18,20:05,86.2,24.4,86.2,86.2,10.5,2.1,1.4,190.6,0.0,0.001175546
2024-05-18,20:10,85.7,23.8,85.7,85.7,10.4,3.3,1.8,224.2,0.0,0.0007463075
2024-05-18,20:15,85.6,23.6,85.6,85.6,10.3,3,1.8,244.6,0.0,0.0004153104
2024-05-18,20:20,,,,,,,,,,
